WetterOnline ( https://www.wetteronline.de )

Wetter aktuell Freising

Aktuelles Wetter: Weihenstephan-Dürnast (478m)

6-stündlich | Neueste Meldungen
Ortszeit Temperatur Wetter
So, 19.09. 14:00 17.7° C leicht bewölkt
So, 19.09. 8:00 8.7° C wolkenlos
So, 19.09. 2:00 8.4° C wolkenlos
Sa, 18.09. 20:00 13.8° C leicht bewölkt
Sa, 18.09. 14:00 18.4° C fast wolkenlos
Sa, 18.09. 8:00 7.5° C wolkenlos
Sa, 18.09. 2:00 8.5° C wolkig
Fr, 17.09. 20:00 13.3° C wolkig
Ortszeit Temperatur Wetter
So, 19.09. 17:00 16.5° C bewölkt
So, 19.09. 16:50 16.5° C bewölkt
So, 19.09. 16:40 16.9° C bewölkt
So, 19.09. 16:30 17.3° C bewölkt
So, 19.09. 16:20 17.3° C bewölkt
So, 19.09. 16:10 17.2° C bewölkt
So, 19.09. 16:00 17.3° C wolkig
So, 19.09. 15:30 17.3° C wolkig
So, 19.09. 15:00 18.0° C leicht bewölkt
So, 19.09. 14:30 17.9° C leicht bewölkt
So, 19.09. 14:00 17.7° C leicht bewölkt
Ortszeit Relative Feuchte Sichtweite
So, 19.09. 14:00 63% 50 km
So, 19.09. 8:00 100% 10 km
So, 19.09. 2:00 100% 5.0 km
Sa, 18.09. 20:00 88% 6 km
Sa, 18.09. 14:00 51% 50 km
Sa, 18.09. 8:00 97% 13 km
Sa, 18.09. 2:00 100% 15 km
Fr, 17.09. 20:00 96% 9 km
Ortszeit Relative Feuchte Sichtweite
So, 19.09. 17:00 66% >70 km
So, 19.09. 16:50 66% -
So, 19.09. 16:40 65% -
So, 19.09. 16:30 64% >70 km
So, 19.09. 16:20 64% -
So, 19.09. 16:10 63% -
So, 19.09. 16:00 62% 65 km
So, 19.09. 15:30 64% >70 km
So, 19.09. 15:00 60% 45 km
So, 19.09. 14:30 63% 60 km
So, 19.09. 14:00 63% 50 km
Ortszeit Niederschlagsmenge Niederschlagsart
So, 19.09. 14:00 0.0 l/m2 in 6 Std. -
So, 19.09. 8:00 0.0 l/m2 in 12 Std. -
So, 19.09. 2:00 0.0 l/m2 in 6 Std. -
Sa, 18.09. 20:00 0.0 l/m2 in 12 Std. -
Sa, 18.09. 14:00 0.0 l/m2 in 6 Std. -
Sa, 18.09. 8:00 0.0 l/m2 in 12 Std. -
Sa, 18.09. 2:00 0.0 l/m2 in 6 Std. -
Fr, 17.09. 20:00 0.0 l/m2 in 12 Std. -
Ortszeit Niederschlagsmenge Niederschlagsart
So, 19.09. 17:00 0.0 l/m2 in 1 Std. -
So, 19.09. 16:50 keine Meldung -
So, 19.09. 16:40 keine Meldung -
So, 19.09. 16:30 0.0 l/m2 in 1 Std. -
So, 19.09. 16:20 keine Meldung -
So, 19.09. 16:10 keine Meldung -
So, 19.09. 16:00 0.0 l/m2 in 1 Std. -
So, 19.09. 15:30 0.0 l/m2 in 1 Std. -
So, 19.09. 15:00 0.0 l/m2 in 1 Std. -
So, 19.09. 14:30 0.0 l/m2 in 1 Std. -
So, 19.09. 14:00 0.0 l/m2 in 1 Std. -
Ortszeit Stärke Spitze Richtung
km/h Bft. km/h Grad Sektor
So, 19.09. 14:00 11 2 25 40° NO
So, 19.09. 8:00 4 1 11 30° NO
So, 19.09. 2:00 2 1 4 300° NW
Sa, 18.09. 20:00 0 0 14 - -
Sa, 18.09. 14:00 9 2 30 290° W
Sa, 18.09. 8:00 0 0 4 - -
Sa, 18.09. 2:00 2 1 6 300° NW
Fr, 17.09. 20:00 0 0 18 - -
Ortszeit Stärke Spitze Richtung
km/h Bft. km/h Grad Sektor
So, 19.09. 17:00 9 2 20 30° NO
So, 19.09. 16:50 9 2 - 30° NO
So, 19.09. 16:40 11 2 - 30° NO
So, 19.09. 16:30 7 2 18 20° N
So, 19.09. 16:20 7 2 - 20° N
So, 19.09. 16:10 11 2 - 10° N
So, 19.09. 16:00 7 2 22 10° N
So, 19.09. 15:30 11 2 22 40° NO
So, 19.09. 15:00 7 2 25 60° NO
So, 19.09. 14:30 9 2 26 70° O
So, 19.09. 14:00 11 2 22 40° NO
Ortszeit Untergrenze Bedeckung Gattung
total tief tief mittel hoch
So, 19.09. 14:00 900 m 3/8 3/8 - - -
So, 19.09. 8:00 - 0/8 0/8 - - -
So, 19.09. 2:00 - 0/8 0/8 - - -
Sa, 18.09. 20:00 1470 m 2/8 2/8 - - -
Sa, 18.09. 14:00 1500 m 1/8 1/8 - - -
Sa, 18.09. 8:00 - 0/8 0/8 - - -
Sa, 18.09. 2:00 1800 m 6/8 4/8 - - -
Fr, 17.09. 20:00 1800 m 6/8 6/8 - - -
Ortszeit Bedeckungsgrad in Achtel und Wolkenuntergrenze
So, 19.09. 17:00 2(960m) 7(1500m) 7(4500m)
So, 19.09. 16:50 2(960m) 7(1500m) 7(4500m)
So, 19.09. 16:40 2(1110m) 7(1500m) 7(4800m)
So, 19.09. 16:30 6(1080m) 7(1320m) 7(1500m)
So, 19.09. 16:20 6(1080m) 7(1320m) 7(1500m)
So, 19.09. 16:10 4(1050m) 7(1500m)
So, 19.09. 16:00 1(930m) 6(1500m) 7(1500m)
So, 19.09. 15:30 2(1080m) 6(1500m)
So, 19.09. 15:00 2(1050m)
So, 19.09. 14:30 2(930m)
So, 19.09. 14:00 3(900m)
Ortszeit Luftdruck NN (hPa) Tendenz (hPa in 3 Std.)
So, 19.09. 14:00 1012 - 0,6
So, 19.09. 8:00 1015 - 0,1
So, 19.09. 2:00 1016 - 0,8
Sa, 18.09. 20:00 1015 0,0
Sa, 18.09. 14:00 1016 - 0,6
Sa, 18.09. 8:00 1018 + 0,4
Sa, 18.09. 2:00 1017 - 0,1
Fr, 17.09. 20:00 1016 + 0,1
Ortszeit Luftdruck NN (hPa) Tendenz (hPa in 3 Std.)
So, 19.09. 17:00 1012 - 0,2
So, 19.09. 16:50 1012 keine Meldung
So, 19.09. 16:40 1012 keine Meldung
So, 19.09. 16:30 1012 - 0,4
So, 19.09. 16:20 1012 keine Meldung
So, 19.09. 16:10 1012 keine Meldung
So, 19.09. 16:00 1012 - 0,5
So, 19.09. 15:30 1012 - 0,6
So, 19.09. 15:00 1012 - 0,5
So, 19.09. 14:30 1012 - 0,6
So, 19.09. 14:00 1012 - 0,6
Ortszeit Schneehöhe (cm)
So, 19.09. 14:00 -
So, 19.09. 8:00 -
So, 19.09. 2:00 -
Sa, 18.09. 20:00 -
Sa, 18.09. 14:00 -
Sa, 18.09. 8:00 -
Sa, 18.09. 2:00 -
Fr, 17.09. 20:00 -
Ortszeit Schneehöhe (cm)
So, 19.09. 17:00 -
So, 19.09. 16:50 -
So, 19.09. 16:40 -
So, 19.09. 16:30 -
So, 19.09. 16:20 -
So, 19.09. 16:10 -
So, 19.09. 16:00 -
So, 19.09. 15:30 -
So, 19.09. 15:00 -
So, 19.09. 14:30 -
So, 19.09. 14:00 -
Link zu dieser Seite / Seite empfehlen

Das Wetter in ...